TimeCDT,TemperatureF,Dew PointF,Humidity,Sea Level PressureIn,VisibilityMPH,Wind Direction,Wind SpeedMPH,Gust SpeedMPH,PrecipitationIn,Events,Conditions,WindDirDegrees,DateUTC
12:53 AM,78.1,68.0,71,29.80,10.0,SSW,11.5,-,N/A,,Clear,200,2013-09-09 05:53:00
1:53 AM,77.0,66.9,71,29.81,10.0,SSW,10.4,-,N/A,,Clear,200,2013-09-09 06:53:00
2:53 AM,75.0,66.0,73,29.81,10.0,SSW,9.2,-,N/A,,Clear,200,2013-09-09 07:53:00
3:53 AM,73.9,66.0,76,29.81,10.0,SW,8.1,-,N/A,,Clear,220,2013-09-09 08:53:00
4:53 AM,72.0,64.9,78,29.81,10.0,SW,6.9,-,N/A,,Clear,220,2013-09-09 09:53:00
5:53 AM,71.1,64.9,81,29.82,10.0,South,3.5,-,N/A,,Clear,180,2013-09-09 10:53:00
6:53 AM,66.0,64.9,96,29.84,9.0,Calm,Calm,-,N/A,,Clear,0,2013-09-09 11:53:00
7:53 AM,71.1,66.0,84,29.85,10.0,Calm,Calm,-,N/A,,Clear,0,2013-09-09 12:53:00
8:53 AM,75.9,66.9,74,29.85,10.0,SSW,4.6,-,N/A,,Clear,200,2013-09-09 13:53:00
9:53 AM,82.0,69.1,65,29.85,10.0,SW,8.1,-,N/A,,Clear,220,2013-09-09 14:53:00
10:53 AM,86.0,68.0,55,29.85,10.0,SW,9.2,19.6,N/A,,Clear,230,2013-09-09 15:53:00
11:53 AM,89.1,69.1,52,29.84,10.0,SW,12.7,18.4,N/A,,Clear,230,2013-09-09 16:53:00
12:53 PM,91.9,69.1,47,29.84,10.0,SSW,12.7,-,N/A,,Clear,200,2013-09-09 17:53:00
1:53 PM,91.9,66.9,44,29.83,10.0,SSW,11.5,-,N/A,,Clear,200,2013-09-09 18:53:00
2:53 PM,93.0,68.0,44,29.82,10.0,SSW,12.7,21.9,N/A,,Clear,200,2013-09-09 19:53:00
3:53 PM,93.9,66.9,41,29.81,10.0,SSW,9.2,21.9,N/A,,Clear,200,2013-09-09 20:53:00
4:53 PM,93.0,64.0,38,29.80,10.0,SSW,11.5,19.6,N/A,,Clear,200,2013-09-09 21:53:00
5:53 PM,91.0,64.9,42,29.81,10.0,SSW,11.5,-,N/A,,Clear,200,2013-09-09 22:53:00
6:53 PM,88.0,64.0,45,29.82,10.0,South,9.2,-,N/A,,Clear,190,2013-09-09 23:53:00
7:53 PM,84.0,62.1,47,29.83,10.0,South,6.9,-,N/A,,Clear,180,2013-09-10 00:53:00
8:53 PM,80.1,64.9,60,29.85,10.0,South,6.9,-,N/A,,Clear,170,2013-09-10 01:53:00
9:53 PM,78.1,63.0,60,29.86,10.0,South,8.1,-,N/A,,Clear,170,2013-09-10 02:53:00
10:53 PM,75.9,61.0,60,29.86,10.0,South,8.1,-,N/A,,Clear,170,2013-09-10 03:53:00
11:53 PM,75.0,61.0,62,29.88,10.0,South,6.9,-,N/A,,Clear,180,2013-09-10 04:53:00